SCP
0 0 0 0 0 0 0 0 0 0 0 0 0 0 0 0 0 0 0 0 0 0
0 0 0 0 0 0 0 0 0 0 0 0 0 0 0 0 0 0 0 0 0 0
0 0 0 0 0 0 0 0 0 0 0 0 0 0 0 0 0 0 0 0 0 0
0 0 0 0 0 0 0 0 0 0 0 0 0 0 0 0 0 0 0 0 0 0
0 0 0 0 0 0 0 0 0 0 0 0 0 0 0 0 0 0 0 0 0 0
0 0 0 0 0 0 0 0 0 0 0 0 0 0 0 0 0 0 0 0 0 0
0 0 0 0 0 0 0 0 0 0 0 0 0 0 0 0 0 0 0 0 0 0
0 0 0 0 0 0 0 0 0 0 0 0 0 0 0 0 0 0 0 0 0 0
0 0 0 0 0 0 0 0 0 0 0 0 0 0 0 0 0 0 0 0 0 0
0 0 0 0 0 0 0 0 0 0 0 0 0 0 0 0 0 0 0 0 0 0
0 0 0 0 0 0 0 0 0 0 0 0 0 0 0 0 0 0 0 0 0 0
0 0 0 0 0 0 0 0 0 0 0 0 0 0 0 0 0 0 0 0 0 0
0 0 0 0 0 0 0 0 0 0 0 0 0 0 0 0 0 0 0 0 0 0
0 0 0 0 0 0 0 0 0 0 0 0 0 0 0 0 0 0 0 0 0 0
Wind_Speed_500mb
35 34 33 33 33 33 33 34 36 37 37 35 33 32 29 26 24 24 24 24 25 26
34 34 34 36 35 35 36 36 39 39 36 34 34 32 29 27 26 27 27 24 26 26
32 33 32 33 33 34 35 35 34 31 30 31 31 29 29 27 26 27 22 24 21 14
26 28 27 28 29 29 28 28 29 29 30 28 26 27 26 25 24 22 21 16 10 12
22 24 23 22 22 23 22 24 26 28 27 24 23 24 27 25 24 21 13 4 6 10
20 21 22 21 21 22 21 22 23 21 21 22 24 27 24 24 26 22 16 14 13 13
23 22 21 22 22 22 23 22 21 22 23 26 27 25 25 27 25 22 20 19 18 19
28 27 22 22 24 21 21 22 25 27 28 28 26 26 29 30 27 27 27 26 26 26
31 33 29 28 27 26 26 27 30 31 31 30 29 30 33 33 35 35 35 34 33 34
29 32 35 36 36 34 34 36 38 38 38 37 37 37 38 39 44 42 42 42 41 41
32 32 33 37 41 42 43 45 46 46 47 49 46 43 45 47 51 52 50 50 48 48
30 32 35 36 40 43 47 50 52 55 55 57 56 52 53 55 58 60 60 58 54 54
27 29 30 34 36 37 41 46 50 54 55 58 62 61 63 63 66 69 69 67 62 59
25 26 28 28 31 34 36 38 38 42 45 50 54 56 59 63 66 71 74 75 74 66
Wind_Direction_500mb
275 276 277 276 274 271 268 264 263 265 263 261 257 255 255 256 260 265 270 277 282 278
275 277 275 274 273 272 270 269 268 265 262 257 252 251 254 258 263 270 273 276 272 269
274 275 274 276 277 274 274 272 270 261 255 252 250 251 254 259 265 268 270 265 264 300
271 274 278 279 278 275 272 273 266 261 256 256 256 254 256 257 257 257 251 258 307 306
275 280 284 280 279 278 279 275 271 261 255 257 260 258 255 251 242 234 228 262 327 320
275 278 280 278 276 277 282 277 270 267 262 259 256 252 249 242 232 230 240 257 272 287
270 268 274 274 270 273 281 287 286 275 265 256 249 247 238 230 235 245 252 257 264 270
267 271 269 270 274 278 283 286 282 271 260 252 246 238 234 242 248 253 257 261 265 267
270 270 269 270 270 273 275 273 268 266 259 252 244 242 246 252 257 260 262 262 264 268
277 272 270 268 267 266 264 262 264 261 257 254 251 251 256 259 262 262 264 266 266 265
277 273 270 269 268 265 262 261 260 259 259 259 257 257 260 262 264 266 267 268 268 268
285 281 278 273 269 268 267 264 263 262 261 261 261 260 260 261 263 266 268 268 267 267
296 294 289 286 283 278 273 271 268 267 266 265 265 263 261 260 263 265 267 268 267 264
311 305 301 300 296 291 287 284 281 278 275 272 271 269 266 263 263 265 267 268 268 266
Wind_Speed_850mb
35 34 33 33 33 33 33 34 36 37 37 35 33 32 29 26 24 24 24 24 25 26
34 34 34 36 35 35 36 36 39 39 36 34 34 32 29 27 26 27 27 24 26 26
32 33 32 33 33 34 35 35 34 31 30 31 31 29 29 27 26 27 22 24 21 14
26 28 27 28 29 29 28 28 29 29 30 28 26 27 26 25 24 22 21 16 10 12
22 24 23 22 22 23 22 24 26 28 27 24 23 24 27 25 24 21 13 4 6 10
20 21 22 21 21 22 21 22 23 21 21 22 24 27 24 24 26 22 16 14 13 13
23 22 21 22 22 22 23 22 21 22 23 26 27 25 25 27 25 22 20 19 18 19
28 27 22 22 24 21 21 22 25 27 28 28 26 26 29 30 27 27 27 26 26 26
31 33 29 28 27 26 26 27 30 31 31 30 29 30 33 33 35 35 35 34 33 34
29 32 35 36 36 34 34 36 38 38 38 37 37 37 38 39 44 42 42 42 41 41
32 32 33 37 41 42 43 45 46 46 47 49 46 43 45 47 51 52 50 50 48 48
30 32 35 36 40 43 47 50 52 55 55 57 56 52 53 55 58 60 60 58 54 54
27 29 30 34 36 37 41 46 50 54 55 58 62 61 63 63 66 69 69 67 62 59
25 26 28 28 31 34 36 38 38 42 45 50 54 56 59 63 66 71 74 75 74 66
Wind_Direction_850mb
275 276 277 276 274 271 268 264 263 265 263 261 257 255 255 256 260 265 270 277 282 278
275 277 275 274 273 272 270 269 268 265 262 257 252 251 254 258 263 270 273 276 272 269
274 275 274 276 277 274 274 272 270 261 255 252 250 251 254 259 265 268 270 265 264 300
271 274 278 279 278 275 272 273 266 261 256 256 256 254 256 257 257 257 251 258 307 306
275 280 284 280 279 278 279 275 271 261 255 257 260 258 255 251 242 234 228 262 327 320
275 278 280 278 276 277 282 277 270 267 262 259 256 252 249 242 232 230 240 257 272 287
270 268 274 274 270 273 281 287 286 275 265 256 249 247 238 230 235 245 252 257 264 270
267 271 269 270 274 278 283 286 282 271 260 252 246 238 234 242 248 253 257 261 265 267
270 270 269 270 270 273 275 273 268 266 259 252 244 242 246 252 257 260 262 262 264 268
277 272 270 268 267 266 264 262 264 261 257 254 251 251 256 259 262 262 264 266 266 265
277 273 270 269 268 265 262 261 260 259 259 259 257 257 260 262 264 266 267 268 268 268
285 281 278 273 269 268 267 264 263 262 261 261 261 260 260 261 263 266 268 268 267 267
296 294 289 286 283 278 273 271 268 267 266 265 265 263 261 260 263 265 267 268 267 264
311 305 301 300 296 291 287 284 281 278 275 272 271 269 266 263 263 265 267 268 268 266